Weather History for KITH - December, 2013

Change the Weather History Date:

Sunday, December 8, 2013

  Actual Average Record
Temperature  
Mean Temperature 20 °F -  
Max Temperature 26 °F 38 °F 62 °F (1951)
Min Temperature 15 °F 23 °F -3 °F (1970)
Degree Days  
Heating Degree Days 44    
Moisture  
Dew Point 14 °F    
Average Humidity 73    
Maximum Humidity 91    
Minimum Humidity 58    
Precipitation  
Precipitation 0.00 in - - ()
Sea Level Pressure  
Sea Level Pressure 30.50 in    
Wind  
Wind Speed 5 mph (South)    
Max Wind Speed 15 mph    
Max Gust Speed -    
Visibility 9 miles    
Events Snow    
Averages and records for this station are not official NWS values.
T = Trace of Precipitation, MM = Missing Value Source: NWS Daily Summary

Daily Weather History Graph

Daily Weather History Graph

Search for Another Location

Airport or City:

Trip Planner

Search our weather history database for the weather conditions in past years. The results will help you decide how hot, cold, wet, or windy it might be!

Date:

Astronomy

Dec. 08, 2013 Rise Set
Actual Time 7:22 AM EST 4:32 PM EST
Civil Twilight 6:51 AM EST 5:04 PM EST
Nautical Twilight 6:15 AM EST 5:39 PM EST
Astronomical Twilight 5:41 AM EST 6:13 PM EST
Moon 11:36 AM EST (12/8) 11:26 PM EST (12/8)
Length of Visible Light 10h 13m
Length of Day
9h 09m
Waxing Crescent, 40% of the Moon is Illuminated
Dec 8
Waxing Crescent
Dec 9
First Quarter
Dec 17
Full
Dec 25
Last Quarter
Jan 1
New

Hourly Weather History & Observations

Time (EST) Temp. Windchill Dew Point Humidity Pressure Visibility Wind Dir Wind Speed Gust Speed Precip Events Conditions
12:30 AM 21.2 °F 11.7 °F 14.0 °F 74% 30.50 in 10.0 mi NW 8.1 mph - N/A   Overcast
12:56 AM 20.1 °F 10.3 °F 13.1 °F 74% 30.56 in 10.0 mi WNW 8.1 mph - N/A   Mostly Cloudy
1:18 AM 21.2 °F 10.1 °F 12.2 °F 68% 30.51 in 10.0 mi WNW 10.4 mph - N/A   Scattered Clouds
1:56 AM 19.0 °F 11.1 °F 12.0 °F 74% 30.58 in 10.0 mi West 5.8 mph - N/A   Clear
2:56 AM 18.1 °F 11.3 °F 11.1 °F 74% 30.58 in 10.0 mi West 4.6 mph - N/A   Clear
3:56 AM 15.1 °F - 12.0 °F 88% 30.58 in 10.0 mi Calm Calm - N/A   Clear
4:56 AM 16.2 °F - 12.0 °F 84% 30.58 in 10.0 mi Calm Calm - N/A   Clear
5:56 AM 17.1 °F 11.7 °F 12.0 °F 81% 30.58 in 10.0 mi North 3.5 mph - N/A   Clear
6:22 AM 17.6 °F - 12.2 °F 79% 30.53 in 10.0 mi Calm Calm - N/A   Clear
6:56 AM 16.2 °F - 14.0 °F 91% 30.60 in 10.0 mi Calm Calm - N/A   Clear
7:56 AM 18.1 °F - 15.1 °F 88% 30.60 in 10.0 mi Calm Calm - N/A   Clear
8:56 AM 20.1 °F 15.2 °F 13.1 °F 74% 30.61 in 10.0 mi SSW 3.5 mph - N/A   Clear
9:56 AM 21.0 °F 16.2 °F 13.1 °F 71% 30.61 in 10.0 mi SSW 3.5 mph - N/A   Clear
10:56 AM 22.1 °F - 13.1 °F 68% 30.57 in 10.0 mi Calm Calm - N/A   Clear
11:56 AM 23.0 °F 18.4 °F 13.1 °F 66% 30.56 in 10.0 mi SSW 3.5 mph - N/A   Clear
12:56 PM 26.1 °F 21.9 °F 13.1 °F 58% 30.53 in 10.0 mi South 3.5 mph - N/A   Mostly Cloudy
1:56 PM 26.1 °F - 14.0 °F 60% 30.50 in 10.0 mi Calm Calm - N/A   Mostly Cloudy
2:56 PM 26.1 °F - 14.0 °F 60% 30.50 in 10.0 mi Calm Calm - N/A   Overcast
3:56 PM 26.1 °F 16.8 °F 13.1 °F 58% 30.50 in 10.0 mi SE 9.2 mph - N/A   Overcast
4:56 PM 25.2 °F 16.5 °F 14.0 °F 63% 30.47 in 10.0 mi ESE 8.1 mph - N/A   Overcast
5:56 PM 25.2 °F 17.3 °F 14.0 °F 63% 30.47 in 10.0 mi SE 6.9 mph - N/A   Overcast
6:56 PM 25.2 °F 18.3 °F 15.1 °F 66% 30.43 in 10.0 mi ESE 5.8 mph - N/A   Overcast
7:56 PM 26.1 °F 16.8 °F 16.2 °F 66% 30.42 in 10.0 mi SSE 9.2 mph - N/A   Overcast
8:56 PM 26.1 °F 16.8 °F 15.1 °F 63% 30.39 in 10.0 mi ESE 9.2 mph - N/A   Overcast
9:56 PM 25.2 °F 15.7 °F 19.0 °F 78% 30.38 in 4.0 mi SSE 9.2 mph - 0.00 in Snow Light Snow
10:14 PM 24.8 °F 17.9 °F 19.4 °F 80% 30.31 in 4.0 mi SE 5.8 mph - 0.00 in Snow Light Snow
10:35 PM 24.8 °F 16.9 °F 19.4 °F 80% 30.30 in 5.0 mi SE 6.9 mph - 0.00 in Snow Light Snow
10:56 PM 24.1 °F 13.7 °F 20.1 °F 85% 30.35 in 10.0 mi SE 10.4 mph - 0.00 in Snow Light Snow
11:56 PM 24.1 °F 11.5 °F 20.1 °F 85% 30.30 in 5.0 mi SSE 15.0 mph - 0.00 in Snow Light Snow